VK2RZ Weather Reports


Display with metric or nautical units.
time (UTC)temp
F
wind
direction
speed
MPH
gust
MPH
rain 1hr
in
rain 24hr
in
rain mn
in
humidity
%
barometer
mb
20260506062048 65 0 0.0 1.0 0.00 0.00 0.00 7 1016.5
20260506061048 66 116 1.0 2.0 0.00 0.00 0.00 7 1016.5
20260506051048 68 74 2.0 4.0 0.00 0.00 0.00 7 1016.7
20260506045047 68 120 2.0 3.0 0.00 0.00 0.00 7 1017.1
20260506044047 68 118 4.0 5.0 0.00 0.00 0.00 6 1017.1
20260506043047 69 77 2.0 6.0 0.00 0.00 0.00 6 1017.1
20260506042047 69 122 2.0 4.0 0.00 0.00 0.00 6 1017.1
20260506041047 70 102 7.0 8.0 0.00 0.00 0.00 6 1017.1
20260506040047 69 105 1.0 4.0 0.00 0.00 0.00 6 1017.2
20260506035047 70 108 5.0 5.0 0.00 0.00 0.00 6 1017.4
20260506034047 70 102 4.0 7.0 0.00 0.00 0.00 6 1017.4
20260506033047 69 27 3.0 4.0 0.00 0.00 0.00 6 1017.5
20260506032047 70 122 5.0 5.0 0.00 0.00 0.00 6 1017.6
20260506031047 70 127 2.0 3.0 0.00 0.00 0.00 6 1017.8
20260506030047 69 0 0.0 3.0 0.00 0.00 0.00 6 1018.0
20260506025047 69 175 2.0 4.0 0.00 0.00 0.00 6 1018.2
20260506024047 69 158 2.0 4.0 0.00 0.00 0.00 6 1018.5
20260506023046 68 167 4.0 4.0 0.00 0.00 0.00 6 1018.6
20260506022046 69 162 1.0 4.0 0.00 0.00 0.00 6 1018.7
20260506021046 68 195 3.0 3.0 0.00 0.00 0.00 6 1018.8
20260506020046 67 0 0.0 1.0 0.00 0.00 0.00 6 1019.2
20260506015046 67 210 3.0 4.0 0.00 0.00 0.00 6 1019.4
20260506014046 68 207 2.0 5.0 0.00 0.00 0.00 6 1019.5
20260506013046 68 218 2.0 4.0 0.00 0.00 0.00 6 1019.6
20260506012046 68 224 3.0 4.0 0.00 0.00 0.00 6 1019.8
20260506011046 67 241 3.0 3.0 0.00 0.00 0.00 6 1019.9
20260506010046 66 269 2.0 5.0 0.00 0.00 0.00 6 1019.9
20260506005046 64 0 0.0 5.0 0.00 0.00 0.00 6 1020.1
20260506004046 64 249 4.0 9.0 0.00 0.00 0.00 6 1020.2
20260506003046 64 252 3.0 4.0 0.00 0.00 0.00 6 1020.4
20260506002046 63 262 4.0 9.0 0.00 0.00 0.00 6 1020.3
20260506001046 63 249 5.0 9.0 0.00 0.00 0.00 6 1020.4
20260506000046 63 264 8.0 9.0 0.00 0.00 0.00 6 1020.5
20260505235046 63 247 9.0 9.0 0.00 0.00 0.00 6 1020.5
20260505234046 62 247 6.0 8.0 0.00 0.00 0.00 6 1020.6
20260505233046 62 255 8.0 12.0 0.00 0.00 0.00 6 1020.5
20260505232046 61 239 6.0 10.0 0.00 0.00 0.00 6 1020.4
20260505231046 61 254 4.0 11.0 0.00 0.00 0.00 6 1020.4
20260505230046 60 221 4.0 7.0 0.00 0.00 0.00 6 1020.4
20260505225046 59 259 5.0 9.0 0.00 0.00 0.00 6 1020.3
20260505224046 59 245 10.0 13.0 0.00 0.00 0.00 7 1020.4
20260505223046 58 248 6.0 11.0 0.00 0.00 0.00 7 1020.4
20260505222046 58 260 15.0 17.0 0.00 0.00 0.00 7 1020.5
20260505221046 57 244 10.0 14.0 0.00 0.00 0.00 7 1020.4
20260505220046 57 246 9.0 11.0 0.00 0.00 0.00 7 1020.4
20260505215046 57 230 11.0 15.0 0.00 0.00 0.00 7 1020.4
20260505214046 56 251 13.0 15.0 0.00 0.00 0.00 7 1020.5
20260505213046 55 245 9.0 10.0 0.00 0.00 0.00 7 1020.5
20260505212046 55 213 5.0 9.0 0.00 0.00 0.00 7 1020.4
20260505211046 55 256 13.0 17.0 0.00 0.00 0.00 7 1020.3
20260505210046 55 248 4.0 11.0 0.00 0.00 0.00 7 1020.3
20260505205046 55 237 6.0 8.0 0.00 0.00 0.00 7 1020.2
20260505204046 55 254 8.0 11.0 0.00 0.00 0.00 7 1020.2
20260505203046 55 250 6.0 13.0 0.00 0.00 0.00 7 1020.2
20260505202046 56 243 5.0 9.0 0.00 0.00 0.00 7 1020.1
20260505201046 56 252 12.0 16.0 0.00 0.00 0.00 7 1020.0
20260505200045 56 245 6.0 16.0 0.00 0.00 0.00 7 1020.0
20260505195045 56 221 12.0 14.0 0.00 0.00 0.00 7 1020.0
20260505194045 56 224 6.0 10.0 0.00 0.00 0.00 7 1020.0
20260505193045 56 258 8.0 15.0 0.00 0.00 0.00 7 1019.9
20260505192045 56 220 5.0 12.0 0.00 0.00 0.00 7 1020.0
20260505191045 56 225 10.0 13.0 0.00 0.00 0.00 7 1020.0
20260505190044 56 245 11.0 13.0 0.00 0.00 0.00 7 1020.1
20260505185044 56 238 11.0 13.0 0.00 0.00 0.00 7 1020.0
20260505184044 56 244 5.0 10.0 0.00 0.00 0.00 7 1020.0
20260505183044 56 264 8.0 10.0 0.00 0.00 0.00 7 1020.0
20260505182044 56 235 6.0 13.0 0.00 0.00 0.00 7 1020.0
20260505181044 57 235 3.0 14.0 0.00 0.00 0.00 6 1019.9
20260505180044 57 251 10.0 12.0 0.00 0.00 0.00 6 1019.9
20260505175044 57 276 8.0 13.0 0.00 0.00 0.00 6 1019.9
20260505174044 57 241 5.0 9.0 0.00 0.00 0.00 6 1020.0
20260505173044 57 249 5.0 13.0 0.00 0.00 0.00 6 1020.0
20260505172044 57 244 6.0 10.0 0.00 0.00 0.00 6 1020.1
20260505171044 57 241 6.0 9.0 0.00 0.00 0.00 6 1020.1
20260505170044 57 250 12.0 14.0 0.00 0.00 0.00 6 1020.1
20260505165044 57 259 7.0 10.0 0.00 0.00 0.00 6 1020.2
20260505164044 57 262 8.0 9.0 0.00 0.00 0.00 6 1020.2
20260505163044 58 238 6.0 13.0 0.00 0.00 0.00 6 1020.4
20260505162044 58 239 16.0 16.0 0.00 0.00 0.00 6 1020.3
20260505161044 58 233 11.0 11.0 0.00 0.00 0.00 6 1020.3
20260505153044 59 210 9.0 15.0 0.00 0.00 0.00 6 1020.8
20260505152044 59 239 10.0 15.0 0.00 0.00 0.00 6 1020.8
20260505151044 59 252 15.0 16.0 0.00 0.00 0.00 6 1020.8
20260505124044 61 249 6.0 11.0 0.00 0.00 0.00 6 1021.0
20260505123044 61 247 9.0 10.0 0.00 0.00 0.00 6 1021.0
20260505122044 61 266 3.0 4.0 0.00 0.00 0.00 6 1021.0
20260505121044 62 250 9.0 9.0 0.00 0.00 0.00 6 1021.1
20260505120044 62 235 3.0 9.0 0.00 0.00 0.00 6 1021.0
20260505115044 62 168 2.0 3.0 0.00 0.00 0.00 6 1020.9
20260505114044 62 167 1.0 2.0 0.00 0.00 0.00 6 1020.9
20260505113044 63 0 0.0 0.0 0.00 0.00 0.00 6 1020.9
20260505112044 64 0 0.0 0.0 0.00 0.00 0.00 6 1021.0
20260505111044 63 0 0.0 0.0 0.00 0.00 0.00 6 1020.9
20260505102043 63 162 1.0 1.0 0.00 0.00 0.00 6 1020.7
20260505101043 63 0 0.0 0.0 0.00 0.00 0.00 6 1020.7
20260505100043 63 0 0.0 0.0 0.00 0.00 0.00 6 1020.7
20260505095043 63 0 0.0 0.0 0.00 0.00 0.00 6 1020.6
20260505094043 63 0 0.0 0.0 0.00 0.00 0.00 6 1020.5
20260505093043 63 0 0.0 1.0 0.00 0.00 0.00 6 1020.3
20260505092043 63 0 0.0 0.0 0.00 0.00 0.00 6 1020.1
20260505091042 63 0 0.0 0.0 0.00 0.00 0.00 6 1020.0
20260505090042 63 162 1.0 2.0 0.00 0.00 0.00 6 1019.8
20260505085042 63 0 0.0 0.0 0.00 0.00 0.00 6 1019.8
20260505084042 63 0 0.0 0.0 0.00 0.00 0.00 6 1019.6
20260505083042 63 0 0.0 0.0 0.00 0.00 0.00 6 1019.6
20260505082042 64 0 0.0 0.0 0.00 0.00 0.00 6 1019.5
20260505081042 64 0 0.0 0.0 0.00 0.00 0.00 6 1019.4
20260505080041 64 0 0.0 0.0 0.00 0.00 0.00 6 1019.2
20260505075041 64 0 0.0 0.0 0.00 0.00 0.00 6 1019.1
20260505074041 65 162 1.0 1.0 0.00 0.00 0.00 6 1018.7
20260505073041 65 0 0.0 1.0 0.00 0.00 0.00 6 1018.6
20260505072041 65 0 0.0 0.0 0.00 0.00 0.00 6 1018.5
20260505071041 66 143 5.0 5.0 0.00 0.00 0.00 6 1018.4
20260505070040 66 118 3.0 4.0 0.00 0.00 0.00 6 1018.4